THY88 EDDB-ENBR

Flight info

Callsign THY88
Flight time 1h 28m
Altitude 40000
Route GERGA4B/06L GERGA M725 RENKI Y89 USEDU DCT SONAL DCT AMSEV DCT BADAB
Aircraft A359/H-SDE2E3GHIJ1J3J4J5LM1ORWXY/LB1D1

Departure

Time 2026-05-06 08:26
Airport Berlin Brandenburg Airport (EDDB)

Arrival

Time 2026-05-06 09:54
Airport Bergen Airport, Flesland (ENBR)
Time Latitude Longitude Altitude Speed Heading
2026-05-06 07:51 52.36722 13.50359 165 ft 0 kts 159°
2026-05-06 08:10 52.36733 13.50352 165 ft 2 kts 161°
2026-05-06 08:11 52.36745 13.50345 165 ft 0 kts 163°
2026-05-06 08:11 52.36753 13.50342 165 ft 2 kts 166°
2026-05-06 08:12 52.36769 13.50338 165 ft 2 kts 200°
2026-05-06 08:12 52.36782 13.50354 165 ft 2 kts 237°
2026-05-06 08:12 52.36787 13.50379 165 ft 2 kts 255°
2026-05-06 08:12 52.36792 13.50405 165 ft 2 kts 247°
2026-05-06 08:13 52.36798 13.50428 165 ft 1 kts 248°
2026-05-06 08:13 52.36799 13.50431 165 ft 0 kts 249°
2026-05-06 08:17 52.36798 13.50429 165 ft 2 kts 249°
2026-05-06 08:17 52.36785 13.50374 165 ft 8 kts 249°
2026-05-06 08:18 52.36764 13.50282 165 ft 10 kts 251°
2026-05-06 08:18 52.36770 13.50197 165 ft 6 kts 302°
2026-05-06 08:18 52.36810 13.50168 165 ft 7 kts 347°
2026-05-06 08:18 52.36863 13.50137 165 ft 9 kts 336°
2026-05-06 08:19 52.36895 13.50055 165 ft 9 kts 274°
2026-05-06 08:19 52.36875 13.49946 165 ft 11 kts 249°
2026-05-06 08:19 52.36845 13.49816 165 ft 13 kts 249°
2026-05-06 08:19 52.36815 13.49683 164 ft 13 kts 249°
2026-05-06 08:20 52.36781 13.49536 164 ft 11 kts 249°
2026-05-06 08:20 52.36761 13.49455 164 ft 8 kts 249°
2026-05-06 08:20 52.36737 13.49355 164 ft 10 kts 249°
2026-05-06 08:20 52.36708 13.49234 164 ft 12 kts 249°
2026-05-06 08:21 52.36675 13.49091 164 ft 14 kts 249°
2026-05-06 08:21 52.36636 13.48930 164 ft 16 kts 249°
2026-05-06 08:21 52.36603 13.48790 164 ft 11 kts 249°
2026-05-06 08:21 52.36576 13.48677 164 ft 8 kts 249°
2026-05-06 08:22 52.36559 13.48602 164 ft 7 kts 249°
2026-05-06 08:22 52.36537 13.48519 164 ft 8 kts 247°
2026-05-06 08:22 52.36520 13.48451 164 ft 3 kts 247°
2026-05-06 08:22 52.36514 13.48406 164 ft 5 kts 271°
2026-05-06 08:23 52.36534 13.48367 164 ft 5 kts 330°
2026-05-06 08:23 52.36539 13.48362 164 ft 0 kts 332°
2026-05-06 08:24 52.36540 13.48361 164 ft 1 kts 332°
2026-05-06 08:24 52.36546 13.48356 164 ft 2 kts 332°
2026-05-06 08:24 52.36587 13.48326 163 ft 9 kts 338°
2026-05-06 08:24 52.36664 13.48281 158 ft 14 kts 344°
2026-05-06 08:25 52.36706 13.48286 157 ft 4 kts 26°
2026-05-06 08:25 52.36721 13.48317 158 ft 4 kts 60°
2026-05-06 08:25 52.36753 13.48431 159 ft 26 kts 66°
2026-05-06 08:25 52.36902 13.49058 158 ft 91 kts 69°
2026-05-06 08:26 52.37201 13.50320 162 ft 145 kts 69°
2026-05-06 08:26 52.37572 13.51964 637 ft 153 kts 68°
2026-05-06 08:26 52.37908 13.53593 1302 ft 151 kts 69°
2026-05-06 08:26 52.38319 13.55288 1626 ft 171 kts 67°
2026-05-06 08:27 52.38793 13.57187 1886 ft 194 kts 67°
2026-05-06 08:27 52.39315 13.59336 2289 ft 212 kts 69°
2026-05-06 08:27 52.39865 13.61651 2828 ft 224 kts 71°
2026-05-06 08:27 52.40443 13.64095 3385 ft 236 kts 70°
2026-05-06 08:28 52.41046 13.66644 3994 ft 243 kts 69°
2026-05-06 08:28 52.41661 13.69256 4640 ft 248 kts 69°
2026-05-06 08:28 52.42286 13.71914 5334 ft 251 kts 69°
2026-05-06 08:28 52.42906 13.74553 6046 ft 252 kts 69°
2026-05-06 08:29 52.43542 13.77244 6744 ft 255 kts 68°
2026-05-06 08:29 52.44505 13.79695 7395 ft 259 kts 45°
2026-05-06 08:29 52.45823 13.81666 8264 ft 255 kts 39°
2026-05-06 08:29 52.47354 13.83168 8939 ft 263 kts 22°
2026-05-06 08:30 52.49213 13.83773 9257 ft 284 kts
2026-05-06 08:30 52.51221 13.83453 9777 ft 295 kts 347°
2026-05-06 08:30 52.53253 13.82614 10249 ft 310 kts 341°
2026-05-06 08:30 52.55374 13.81522 10560 ft 329 kts 340°
2026-05-06 08:31 52.57616 13.80318 10882 ft 348 kts 340°
2026-05-06 08:31 52.59965 13.79133 11211 ft 366 kts 342°
2026-05-06 08:31 52.62454 13.77987 11727 ft 376 kts 343°
2026-05-06 08:31 52.65005 13.76886 12390 ft 382 kts 343°
2026-05-06 08:32 52.67594 13.75804 13070 ft 387 kts 343°
2026-05-06 08:32 52.70229 13.74713 13737 ft 392 kts 343°
2026-05-06 08:32 52.72890 13.73610 14358 ft 396 kts 343°
2026-05-06 08:32 52.75575 13.72490 14989 ft 400 kts 343°
2026-05-06 08:33 52.78247 13.71369 15583 ft 404 kts 343°
2026-05-06 08:33 52.80975 13.70221 16300 ft 405 kts 344°
2026-05-06 08:33 52.83708 13.69069 16976 ft 407 kts 343°
2026-05-06 08:33 52.86465 13.67900 17583 ft 411 kts 343°
2026-05-06 08:34 52.89247 13.66717 18193 ft 415 kts 343°
2026-05-06 08:34 52.94879 13.64317 19421 ft 421 kts 343°
2026-05-06 08:34 52.97725 13.63101 20012 ft 425 kts 344°
2026-05-06 08:35 53.00552 13.61891 20590 ft 428 kts 344°
2026-05-06 08:35 53.03445 13.60651 21275 ft 430 kts 345°
2026-05-06 08:35 53.06361 13.59405 21897 ft 435 kts 344°
2026-05-06 08:35 53.09301 13.58147 22625 ft 436 kts 344°
2026-05-06 08:36 53.12245 13.56883 23435 ft 437 kts 345°
2026-05-06 08:36 53.15208 13.55617 23911 ft 442 kts 345°
2026-05-06 08:36 53.18197 13.54325 24371 ft 446 kts 345°
2026-05-06 08:36 53.21178 13.53033 24831 ft 449 kts 345°
2026-05-06 08:37 53.24253 13.51703 25246 ft 454 kts 345°
2026-05-06 08:37 53.27306 13.50382 25405 ft 465 kts 345°
2026-05-06 08:37 53.30458 13.49019 25830 ft 468 kts 345°
2026-05-06 08:37 53.33622 13.47651 26338 ft 471 kts 346°
2026-05-06 08:38 53.36790 13.46282 26998 ft 468 kts 346°
2026-05-06 08:38 53.39936 13.44916 27635 ft 468 kts 346°
2026-05-06 08:38 53.43100 13.43533 28035 ft 471 kts 346°
2026-05-06 08:38 53.46263 13.42145 28728 ft 467 kts 346°
2026-05-06 08:39 53.49399 13.40778 29409 ft 465 kts 346°
2026-05-06 08:39 53.52484 13.39425 29975 ft 464 kts 346°
2026-05-06 08:39 53.55608 13.38062 30419 ft 464 kts 346°
2026-05-06 08:39 53.58736 13.36689 30832 ft 465 kts 346°
2026-05-06 08:40 53.61874 13.35305 31161 ft 468 kts 346°
2026-05-06 08:40 53.65038 13.33908 31427 ft 472 kts 345°
2026-05-06 08:40 53.68228 13.32498 31670 ft 476 kts 345°
2026-05-06 08:40 53.71444 13.31075 31928 ft 480 kts 345°
2026-05-06 08:41 53.74690 13.29637 32194 ft 483 kts 345°
2026-05-06 08:41 53.77907 13.28211 32447 ft 486 kts 345°
2026-05-06 08:41 53.81186 13.26746 32725 ft 489 kts 345°
2026-05-06 08:41 53.84484 13.25277 33000 ft 491 kts 345°
2026-05-06 08:42 53.87799 13.23802 33269 ft 494 kts 345°
2026-05-06 08:42 53.91129 13.22320 33545 ft 496 kts 345°
2026-05-06 08:42 53.94469 13.20833 33833 ft 497 kts 345°
2026-05-06 08:42 53.97819 13.19344 34090 ft 498 kts 346°
2026-05-06 08:43 54.01170 13.17841 34366 ft 498 kts 345°
2026-05-06 08:43 54.04520 13.16332 34664 ft 498 kts 344°
2026-05-06 08:43 54.07818 13.14834 34953 ft 497 kts 344°
2026-05-06 08:43 54.11159 13.13323 35236 ft 496 kts 344°
2026-05-06 08:44 54.14494 13.11818 35553 ft 495 kts 344°
2026-05-06 08:44 54.17824 13.10315 35823 ft 495 kts 343°
2026-05-06 08:44 54.21152 13.08809 36091 ft 495 kts 343°
2026-05-06 08:44 54.24486 13.07299 36337 ft 495 kts 343°
2026-05-06 08:45 54.27810 13.05789 36598 ft 494 kts 343°
2026-05-06 08:45 54.31129 13.04279 36872 ft 493 kts 343°
2026-05-06 08:45 54.34397 13.02789 37137 ft 492 kts 342°
2026-05-06 08:45 54.37702 13.01280 37411 ft 491 kts 342°
2026-05-06 08:46 54.40998 12.99772 37690 ft 489 kts 342°
2026-05-06 08:46 54.44282 12.98266 37967 ft 488 kts 342°
2026-05-06 08:46 54.47554 12.96765 38256 ft 486 kts 342°
2026-05-06 08:46 54.50813 12.95267 38557 ft 484 kts 342°
2026-05-06 08:47 54.54066 12.93768 38694 ft 484 kts 342°
2026-05-06 08:47 54.60541 12.90776 38882 ft 486 kts 341°
2026-05-06 08:48 54.67083 12.87744 39061 ft 488 kts 341°
2026-05-06 08:48 54.73655 12.84688 39248 ft 489 kts 341°
2026-05-06 08:49 54.80241 12.81617 39403 ft 491 kts 341°
2026-05-06 08:49 54.86719 12.78098 39489 ft 490 kts 332°
2026-05-06 08:50 54.92511 12.72054 39598 ft 486 kts 321°
2026-05-06 08:50 54.97969 12.65097 39686 ft 487 kts 319°
2026-05-06 08:51 55.03388 12.57960 39799 ft 489 kts 319°
2026-05-06 08:51 55.08840 12.50855 39887 ft 490 kts 321°
2026-05-06 08:52 55.14317 12.43861 39926 ft 491 kts 321°
2026-05-06 08:52 55.19798 12.36740 39925 ft 490 kts 321°
2026-05-06 08:53 55.25238 12.29562 39922 ft 489 kts 320°
2026-05-06 08:53 55.30662 12.22354 39939 ft 489 kts 320°
2026-05-06 08:54 55.36048 12.15173 39930 ft 490 kts 320°
2026-05-06 08:54 55.41473 12.07922 39927 ft 490 kts 320°
2026-05-06 08:55 55.46899 12.00644 39930 ft 490 kts 320°
2026-05-06 08:55 55.52309 11.93361 39933 ft 490 kts 320°
2026-05-06 08:56 55.57687 11.86096 39918 ft 490 kts 320°
2026-05-06 08:56 55.63093 11.78766 39929 ft 490 kts 320°
2026-05-06 08:57 55.68489 11.71425 39930 ft 489 kts 320°
2026-05-06 08:57 55.73841 11.64118 39937 ft 489 kts 320°
2026-05-06 08:58 55.79222 11.56746 39945 ft 488 kts 320°
2026-05-06 08:58 55.84589 11.49366 39949 ft 488 kts 320°
2026-05-06 08:59 55.89955 11.41959 39952 ft 488 kts 320°
2026-05-06 08:59 55.95305 11.34548 39961 ft 488 kts 320°
2026-05-06 09:00 56.00627 11.27150 39956 ft 488 kts 319°
2026-05-06 09:00 56.05977 11.19686 39960 ft 488 kts 319°
2026-05-06 09:01 56.11320 11.12207 39959 ft 487 kts 319°
2026-05-06 09:01 56.16654 11.04711 39963 ft 487 kts 319°
2026-05-06 09:02 56.21940 10.97256 39963 ft 486 kts 319°
2026-05-06 09:02 56.27257 10.89730 39966 ft 486 kts 319°
2026-05-06 09:03 56.32569 10.82183 39966 ft 486 kts 319°
2026-05-06 09:03 56.37877 10.74616 39986 ft 486 kts 319°
2026-05-06 09:04 56.43135 10.67092 39966 ft 485 kts 319°
2026-05-06 09:04 56.48414 10.59511 39964 ft 484 kts 319°
2026-05-06 09:05 56.53686 10.51912 39964 ft 484 kts 319°
2026-05-06 09:05 56.58952 10.44292 39966 ft 484 kts 319°
2026-05-06 09:06 56.64182 10.36696 39963 ft 484 kts 319°
2026-05-06 09:06 56.69440 10.29035 39966 ft 484 kts 318°
2026-05-06 09:07 56.74686 10.21363 39957 ft 483 kts 318°
2026-05-06 09:07 56.79921 10.13675 39958 ft 483 kts 318°
2026-05-06 09:08 56.85151 10.05968 39955 ft 483 kts 318°
2026-05-06 09:08 56.90341 9.98292 39963 ft 483 kts 318°
2026-05-06 09:09 56.95559 9.90544 39964 ft 483 kts 318°
2026-05-06 09:09 57.00779 9.82768 39975 ft 483 kts 318°
2026-05-06 09:10 57.05983 9.74985 39966 ft 482 kts 318°
2026-05-06 09:10 57.11142 9.67241 39967 ft 482 kts 318°
2026-05-06 09:11 57.16330 9.59423 39964 ft 482 kts 317°
2026-05-06 09:11 57.21514 9.51581 39979 ft 482 kts 317°
2026-05-06 09:12 57.26698 9.43711 39968 ft 482 kts 317°
2026-05-06 09:12 57.31836 9.35880 39978 ft 482 kts 317°
2026-05-06 09:13 57.37002 9.27978 39980 ft 482 kts 317°
2026-05-06 09:13 57.42160 9.20059 39979 ft 481 kts 317°
2026-05-06 09:14 57.47312 9.12119 39985 ft 481 kts 317°
2026-05-06 09:14 57.52458 9.04158 39988 ft 481 kts 317°
2026-05-06 09:15 57.57561 8.96234 39999 ft 481 kts 317°
2026-05-06 09:15 57.62691 8.88237 40005 ft 481 kts 317°
2026-05-06 09:16 57.67759 8.80108 39997 ft 478 kts 312°
2026-05-06 09:16 57.72409 8.71381 40009 ft 477 kts 312°
2026-05-06 09:17 57.77077 8.62558 40008 ft 477 kts 312°
2026-05-06 09:17 57.81743 8.53726 40005 ft 477 kts 311°
2026-05-06 09:18 57.86417 8.44849 40013 ft 478 kts 312°
2026-05-06 09:18 57.91060 8.36001 40010 ft 478 kts 312°
2026-05-06 09:19 57.95726 8.27075 40010 ft 478 kts 311°
2026-05-06 09:19 58.00385 8.18127 40000 ft 478 kts 311°
2026-05-06 09:20 58.05037 8.09156 39996 ft 478 kts 311°
2026-05-06 09:20 58.09683 8.00162 40011 ft 478 kts 311°
2026-05-06 09:21 58.14287 7.91214 39995 ft 477 kts 311°
2026-05-06 09:21 58.18909 7.82195 39995 ft 477 kts 311°
2026-05-06 09:22 58.23528 7.73146 39997 ft 477 kts 311°
2026-05-06 09:22 58.28135 7.64084 40003 ft 477 kts 311°
2026-05-06 09:23 58.32702 7.55064 40005 ft 477 kts 311°
2026-05-06 09:23 58.37293 7.45962 40028 ft 476 kts 311°
2026-05-06 09:24 58.41881 7.36827 40004 ft 477 kts 311°
2026-05-06 09:24 58.46470 7.27658 40006 ft 478 kts 311°
2026-05-06 09:25 58.51025 7.18517 40017 ft 478 kts 311°
2026-05-06 09:25 58.55600 7.09298 40014 ft 478 kts 311°
2026-05-06 09:26 58.60169 7.00055 40015 ft 478 kts 311°
2026-05-06 09:26 58.64732 6.90787 40042 ft 478 kts 311°
2026-05-06 09:27 58.69256 6.81560 40030 ft 478 kts 311°
2026-05-06 09:27 58.73802 6.72249 40035 ft 477 kts 311°
2026-05-06 09:28 58.78340 6.62917 39996 ft 477 kts 310°
2026-05-06 09:28 58.80593 6.58271 39819 ft 470 kts 310°
2026-05-06 09:28 58.82798 6.53715 39612 ft 459 kts 310°
2026-05-06 09:28 58.84926 6.49308 39429 ft 449 kts 310°
2026-05-06 09:29 58.87033 6.44933 39165 ft 441 kts 310°
2026-05-06 09:29 58.89108 6.40614 38838 ft 436 kts 310°
2026-05-06 09:29 58.91156 6.36345 38427 ft 430 kts 309°
2026-05-06 09:29 58.93178 6.32121 38015 ft 425 kts 309°
2026-05-06 09:30 58.95175 6.27946 37576 ft 420 kts 309°
2026-05-06 09:30 58.97146 6.23817 37146 ft 415 kts 308°
2026-05-06 09:30 58.99093 6.19733 36729 ft 410 kts 308°
2026-05-06 09:30 59.00366 6.17057 36473 ft 406 kts 308°
2026-05-06 09:31 59.02884 6.11758 35941 ft 400 kts 308°
2026-05-06 09:31 59.04787 6.07852 35574 ft 398 kts 310°
2026-05-06 09:31 59.06947 6.04462 35205 ft 402 kts 321°
2026-05-06 09:31 59.09464 6.01976 34795 ft 411 kts 333°
2026-05-06 09:32 59.12254 6.00497 34317 ft 419 kts 342°
2026-05-06 09:32 59.15114 5.99405 33809 ft 418 kts 342°
2026-05-06 09:32 59.17968 5.98348 33244 ft 417 kts 342°
2026-05-06 09:32 59.19854 5.97645 32945 ft 416 kts 341°
2026-05-06 09:33 59.23606 5.96230 32232 ft 414 kts 341°
2026-05-06 09:33 59.26427 5.95160 31705 ft 412 kts 341°
2026-05-06 09:33 59.29237 5.94090 31197 ft 411 kts 341°
2026-05-06 09:33 59.32036 5.93019 30688 ft 409 kts 341°
2026-05-06 09:34 59.33882 5.92311 30357 ft 408 kts 341°
2026-05-06 09:34 59.36664 5.91242 29824 ft 407 kts 341°
2026-05-06 09:34 59.39437 5.90174 29244 ft 406 kts 341°
2026-05-06 09:34 59.42205 5.89126 28678 ft 405 kts 342°
2026-05-06 09:35 59.45936 5.88239 27934 ft 409 kts 348°
2026-05-06 09:35 59.48769 5.87776 27467 ft 408 kts 347°
2026-05-06 09:35 59.50684 5.87471 27109 ft 407 kts 347°
2026-05-06 09:35 59.53471 5.87021 26572 ft 407 kts 347°
2026-05-06 09:36 59.56292 5.86563 26052 ft 406 kts 347°
2026-05-06 09:36 59.59101 5.86108 25543 ft 404 kts 347°
2026-05-06 09:36 59.61887 5.85655 25044 ft 403 kts 347°
2026-05-06 09:36 59.65579 5.85054 24391 ft 399 kts 347°
2026-05-06 09:37 59.68335 5.84607 23929 ft 397 kts 347°
2026-05-06 09:37 59.71082 5.84157 23408 ft 395 kts 347°
2026-05-06 09:37 59.72897 5.83857 23025 ft 394 kts 348°
2026-05-06 09:37 59.75616 5.83406 22478 ft 391 kts 348°
2026-05-06 09:38 59.78316 5.82961 21972 ft 388 kts 347°
2026-05-06 09:38 59.80995 5.82509 21431 ft 385 kts 347°
2026-05-06 09:38 59.83620 5.81803 20892 ft 378 kts 343°
2026-05-06 09:38 59.86194 5.80902 20378 ft 374 kts 342°
2026-05-06 09:39 59.89576 5.79678 19702 ft 372 kts 342°
2026-05-06 09:39 59.91293 5.79055 19354 ft 371 kts 342°
2026-05-06 09:39 59.93827 5.78135 18858 ft 368 kts 343°
2026-05-06 09:39 59.96335 5.77229 18369 ft 365 kts 343°
2026-05-06 09:40 59.98787 5.76342 17829 ft 362 kts 343°
2026-05-06 09:40 60.01257 5.75446 17273 ft 359 kts 343°
2026-05-06 09:40 60.06130 5.73682 16250 ft 353 kts 343°
2026-05-06 09:41 60.08531 5.72807 15713 ft 349 kts 343°
2026-05-06 09:41 60.10909 5.71939 15209 ft 346 kts 344°
2026-05-06 09:41 60.13265 5.71078 14695 ft 343 kts 344°
2026-05-06 09:41 60.15612 5.70305 14193 ft 341 kts 347°
2026-05-06 09:42 60.17955 5.69680 13679 ft 338 kts 348°
2026-05-06 09:42 60.20243 5.69072 13122 ft 335 kts 348°
2026-05-06 09:42 60.22548 5.68441 12390 ft 335 kts 349°
2026-05-06 09:42 60.24875 5.67797 11592 ft 340 kts 349°
2026-05-06 09:43 60.27230 5.67136 10804 ft 344 kts 350°
2026-05-06 09:43 60.29615 5.66463 10028 ft 348 kts 351°
2026-05-06 09:43 60.32017 5.65783 9322 ft 347 kts 351°
2026-05-06 09:43 60.34375 5.65120 9007 ft 336 kts 351°
2026-05-06 09:44 60.36648 5.64486 8769 ft 323 kts 352°
2026-05-06 09:44 60.38796 5.63887 8529 ft 310 kts 352°
2026-05-06 09:44 60.40889 5.63301 8306 ft 298 kts 352°
2026-05-06 09:44 60.42899 5.62738 8095 ft 286 kts 352°
2026-05-06 09:45 60.44830 5.62190 7915 ft 275 kts 352°
2026-05-06 09:45 60.46685 5.61665 7740 ft 264 kts 352°
2026-05-06 09:45 60.48478 5.61390 7529 ft 254 kts 359°
2026-05-06 09:45 60.50218 5.61274 7254 ft 248 kts 352°
2026-05-06 09:46 60.51799 5.60080 6871 ft 242 kts 323°
2026-05-06 09:46 60.52845 5.57507 6529 ft 237 kts 294°
2026-05-06 09:46 60.53126 5.54312 6154 ft 234 kts 265°
2026-05-06 09:46 60.52846 5.51086 5867 ft 230 kts 261°
2026-05-06 09:47 60.52555 5.47913 5548 ft 227 kts 261°
2026-05-06 09:47 60.52284 5.44773 5264 ft 224 kts 261°
2026-05-06 09:47 60.52019 5.41646 5023 ft 226 kts 261°
2026-05-06 09:47 60.51759 5.38525 4790 ft 223 kts 263°
2026-05-06 09:48 60.51507 5.35441 4547 ft 221 kts 262°
2026-05-06 09:48 60.51256 5.32402 4282 ft 221 kts 262°
2026-05-06 09:48 60.50991 5.29340 4018 ft 220 kts 259°
2026-05-06 09:48 60.50461 5.26434 3773 ft 220 kts 245°
2026-05-06 09:49 60.49731 5.23717 3505 ft 219 kts 243°
2026-05-06 09:49 60.48984 5.21081 3348 ft 211 kts 243°
2026-05-06 09:49 60.48250 5.18596 3209 ft 201 kts 238°
2026-05-06 09:49 60.47202 5.16848 3083 ft 198 kts 205°
2026-05-06 09:50 60.45860 5.16168 3010 ft 200 kts 191°
2026-05-06 09:50 60.44473 5.16406 3002 ft 206 kts 172°
2026-05-06 09:50 60.43100 5.17052 2853 ft 198 kts 172°
2026-05-06 09:50 60.41788 5.17590 2575 ft 185 kts 173°
2026-05-06 09:51 60.40568 5.18007 2325 ft 171 kts 175°
2026-05-06 09:51 60.39440 5.18376 2088 ft 159 kts 174°
2026-05-06 09:51 60.38376 5.18749 1869 ft 150 kts 174°
2026-05-06 09:51 60.37387 5.19086 1658 ft 140 kts 174°
2026-05-06 09:52 60.36450 5.19403 1460 ft 137 kts 175°
2026-05-06 09:52 60.35507 5.19717 1264 ft 138 kts 175°
2026-05-06 09:52 60.34557 5.20041 1062 ft 139 kts 175°
2026-05-06 09:52 60.33604 5.20364 852 ft 138 kts 174°
2026-05-06 09:53 60.32671 5.20680 658 ft 134 kts 174°
2026-05-06 09:53 60.31759 5.20990 474 ft 133 kts 173°
2026-05-06 09:53 60.30846 5.21299 308 ft 134 kts 174°
2026-05-06 09:53 60.29944 5.21606 202 ft 127 kts 170°
2026-05-06 09:54 60.29155 5.21874 160 ft 98 kts 170°
2026-05-06 09:54 60.28644 5.22046 157 ft 51 kts 170°
2026-05-06 09:54 60.28426 5.22117 154 ft 22 kts 172°
2026-05-06 09:54 60.28341 5.22147 153 ft 9 kts 164°
2026-05-06 09:55 60.28288 5.22229 152 ft 11 kts 119°
2026-05-06 09:55 60.28283 5.22366 151 ft 6 kts 82°
2026-05-06 09:55 60.28292 5.22459 151 ft 8 kts 78°
2026-05-06 09:55 60.28309 5.22575 152 ft 8 kts 58°
2026-05-06 09:56 60.28354 5.22586 152 ft 7 kts 352°
2026-05-06 09:56 60.28412 5.22570 152 ft 9 kts 351°
2026-05-06 09:56 60.28483 5.22545 153 ft 11 kts 350°
2026-05-06 09:56 60.28566 5.22515 154 ft 13 kts 349°
2026-05-06 09:57 60.28624 5.22495 154 ft 5 kts 351°
2026-05-06 09:57 60.28668 5.22481 155 ft 8 kts 351°
2026-05-06 09:57 60.28716 5.22472 155 ft 7 kts
2026-05-06 09:57 60.28759 5.22509 155 ft 4 kts 38°
2026-05-06 09:58 60.28782 5.22544 155 ft 5 kts 36°
2026-05-06 09:58 60.28803 5.22575 156 ft 0 kts 36°